Weather History for Dyersburg, TN

Change the Weather History Date:

Tuesday, December 4, 2012

  Actual Average Record
Temperature  
Mean Temperature 58 °F -  
Max Temperature 66 °F 51 °F 75 °F (1998)
Min Temperature 51 °F 36 °F 17 °F (2006)
Degree Days  
Heating Degree Days 6    
Growing Degree Days 8 (Base 50)    
Moisture  
Dew Point 51 °F    
Average Humidity 70    
Maximum Humidity 77    
Minimum Humidity 62    
Precipitation  
Precipitation 0.32 in - - ()
Sea Level Pressure  
Sea Level Pressure 30.14 in    
Wind  
Wind Speed 8 mph (South)    
Max Wind Speed 14 mph    
Max Gust Speed 24 mph    
Visibility 10 miles    
Events Thunderstorm    
Averages and records for this station are not official NWS values.
T = Trace of Precipitation, MM = Missing Value Source: NWS Daily Summary

Daily Weather History Graph

Daily Weather History Graph

Search for Another Location

Airport:

Trip Planner

Search our weather history database for the weather conditions in past years. The results will help you decide how hot, cold, wet, or windy it might be!

Date:

Astronomy

Dec. 04, 2012 Rise Set
Actual Time 6:52 AM CST 4:43 PM CST
Civil Twilight 6:24 AM CST 5:11 PM CST
Nautical Twilight 5:52 AM CST 5:43 PM CST
Astronomical Twilight 5:21 AM CST 6:14 PM CST
Moon 10:23 PM CST (12/4) 10:53 AM CST (12/4)
Length of Visible Light 10h 46m
Length of Day
9h 50m
Waning Gibbous, 69% of the Moon is Illuminated
Dec 4
Waning Gibbous
Dec 6
Last Quarter
Dec 13
New
Dec 19
First Quarter
Dec 28
Full

Hourly Weather History & Observations

Time (CST) Temp. Dew Point Humidity Pressure Visibility Wind Dir Wind Speed Gust Speed Precip Events Conditions
12:15 AM 64.4 °F 51.8 °F 64% 30.09 in 10.0 mi SSE 8.1 mph - N/A   Overcast
12:35 AM 64.4 °F 51.8 °F 64% 30.08 in 10.0 mi South 9.2 mph 17.3 mph N/A   Overcast
12:56 AM 64.4 °F 51.8 °F 64% 30.08 in 10.0 mi South 9.2 mph 16.1 mph N/A   Overcast
1:15 AM 64.4 °F 53.6 °F 68% 30.08 in 10.0 mi SSE 9.2 mph - N/A   Overcast
1:35 AM 64.4 °F 53.6 °F 68% 30.09 in 10.0 mi South 8.1 mph - N/A   Overcast
1:55 AM 64.4 °F 53.6 °F 68% 30.09 in 10.0 mi South 10.4 mph 16.1 mph N/A   Overcast
2:15 AM 64.4 °F 53.6 °F 68% 30.09 in 10.0 mi South 6.9 mph - N/A   Overcast
2:55 AM 64.4 °F 53.6 °F 68% 30.08 in 10.0 mi South 9.2 mph - N/A   Overcast
3:15 AM 64.4 °F 53.6 °F 68% 30.08 in 10.0 mi South 9.2 mph - N/A   Overcast
3:36 AM 66.2 °F 53.6 °F 64% 30.08 in 10.0 mi South 8.1 mph - N/A   Overcast
3:55 AM 66.2 °F 53.6 °F 64% 30.08 in 10.0 mi South 8.1 mph 16.1 mph N/A   Mostly Cloudy
4:15 AM 66.2 °F 53.6 °F 64% 30.08 in 10.0 mi South 9.2 mph - N/A   Overcast
4:35 AM 64.4 °F 53.6 °F 68% 30.08 in 10.0 mi South 8.1 mph - N/A   Mostly Cloudy
4:55 AM 64.4 °F 53.6 °F 68% 30.09 in 10.0 mi South 6.9 mph - N/A   Overcast
5:16 AM 64.4 °F 53.6 °F 68% 30.09 in 10.0 mi South 5.8 mph - N/A   Overcast
5:35 AM 64.4 °F 53.6 °F 68% 30.09 in 10.0 mi South 6.9 mph - N/A   Overcast
6:15 AM 64.4 °F 53.6 °F 68% 30.09 in 10.0 mi South 8.1 mph - N/A   Overcast
6:35 AM 64.4 °F 53.6 °F 68% 30.10 in 10.0 mi SW 4.6 mph - N/A   Mostly Cloudy
7:15 AM 64.4 °F 53.6 °F 68% 30.11 in 10.0 mi South 5.8 mph - N/A   Overcast
7:35 AM 64.4 °F 53.6 °F 68% 30.11 in 10.0 mi South 5.8 mph - N/A   Overcast
8:15 AM 64.4 °F 53.6 °F 68% 30.11 in 10.0 mi South 6.9 mph - N/A   Overcast
8:35 AM 66.2 °F 55.4 °F 68% 30.12 in 10.0 mi South 9.2 mph - N/A   Overcast
8:56 AM 66.2 °F 55.4 °F 68% 30.12 in 10.0 mi South 10.4 mph - N/A   Overcast
9:15 AM 66.2 °F 55.4 °F 68% 30.11 in 10.0 mi South 9.2 mph - N/A   Overcast
9:35 AM 66.2 °F 55.4 °F 68% 30.12 in 10.0 mi South 11.5 mph - N/A   Overcast
9:55 AM 66.2 °F 55.4 °F 68% 30.12 in 10.0 mi South 6.9 mph - N/A   Overcast
10:15 AM 64.4 °F 57.2 °F 77% 30.12 in 8.0 mi South 8.1 mph - N/A   Overcast
10:55 AM 64.4 °F 57.2 °F 77% 30.13 in 7.0 mi West 13.8 mph 24.2 mph 0.12 in Thunderstorm Overcast
11:15 AM 62.6 °F 53.6 °F 72% 30.12 in 10.0 mi North 6.9 mph - 0.16 in Thunderstorm Thunderstorm
11:36 AM 62.6 °F 53.6 °F 72% 30.12 in 8.0 mi Calm Calm - 0.17 in   Overcast
11:55 AM 62.6 °F 53.6 °F 72% 30.10 in 9.0 mi Calm Calm - 0.19 in   Mostly Cloudy
12:15 PM 62.6 °F 55.4 °F 77% 30.09 in 10.0 mi SE 6.9 mph - 0.01 in   Overcast
12:35 PM 64.4 °F 55.4 °F 73% 30.08 in 10.0 mi South 5.8 mph - 0.01 in   Overcast
1:15 PM 66.2 °F 55.4 °F 68% 30.09 in 10.0 mi SSW 6.9 mph - N/A   Overcast
1:35 PM 64.4 °F 55.4 °F 73% 30.10 in 10.0 mi WSW 3.5 mph - N/A   Overcast
1:55 PM 64.4 °F 55.4 °F 73% 30.12 in 10.0 mi WSW 5.8 mph - N/A   Overcast
2:15 PM 64.4 °F 55.4 °F 73% 30.12 in 10.0 mi West 10.4 mph - N/A   Overcast
2:35 PM 64.4 °F 55.4 °F 73% 30.13 in 10.0 mi West 9.2 mph - N/A   Overcast
2:55 PM 62.6 °F 53.6 °F 72% 30.14 in 10.0 mi WSW 8.1 mph - N/A   Mostly Cloudy
3:15 PM 62.6 °F 53.6 °F 72% 30.14 in 10.0 mi WSW 5.8 mph - N/A   Overcast
3:36 PM 62.6 °F 53.6 °F 72% 30.13 in 10.0 mi West 5.8 mph - N/A   Overcast
3:55 PM 60.8 °F 53.6 °F 77% 30.14 in 10.0 mi WNW 5.8 mph - N/A   Overcast
4:15 PM 57.2 °F 50.0 °F 77% 30.16 in 10.0 mi North 11.5 mph 16.1 mph N/A   Overcast
4:55 PM 55.4 °F 48.2 °F 77% 30.13 in 10.0 mi NE 8.1 mph - N/A   Mostly Cloudy
5:15 PM 55.4 °F 48.2 °F 77% 30.16 in 10.0 mi NNW 8.1 mph - N/A   Mostly Cloudy
5:35 PM 55.4 °F 46.4 °F 72% 30.18 in 10.0 mi NNW 12.7 mph - N/A   Overcast
6:15 PM 53.6 °F 46.4 °F 77% 30.20 in 10.0 mi NNE 11.5 mph - N/A   Overcast
6:55 PM 53.6 °F 46.4 °F 77% 30.21 in 10.0 mi NNE 10.4 mph - N/A   Overcast
7:16 PM 53.6 °F 46.4 °F 77% 30.21 in 10.0 mi North 12.7 mph 17.3 mph N/A   Overcast
7:35 PM 53.6 °F 46.4 °F 77% 30.21 in 10.0 mi NNE 9.2 mph 17.3 mph N/A   Overcast
7:55 PM 53.6 °F 46.4 °F 77% 30.22 in 10.0 mi NNE 11.5 mph - N/A   Overcast
8:35 PM 55.4 °F 46.4 °F 72% 30.24 in 10.0 mi NNE 9.2 mph - N/A   Overcast
8:55 PM 55.4 °F 46.4 °F 72% 30.24 in 10.0 mi NE 9.2 mph - N/A   Overcast
9:15 PM 55.4 °F 44.6 °F 67% 30.25 in 10.0 mi North 9.2 mph - N/A   Overcast
9:36 PM 53.6 °F 44.6 °F 72% 30.26 in 10.0 mi NNE 9.2 mph - N/A   Overcast
9:55 PM 53.6 °F 44.6 °F 72% 30.25 in 10.0 mi NNE 9.2 mph - N/A   Overcast
10:15 PM 53.6 °F 42.8 °F 67% 30.26 in 10.0 mi NNE 9.2 mph - N/A   Overcast
10:36 PM 53.6 °F 42.8 °F 67% 30.26 in 10.0 mi NNE 11.5 mph - N/A   Overcast
10:55 PM 53.6 °F 42.8 °F 67% 30.27 in 10.0 mi North 10.4 mph - N/A   Overcast
11:15 PM 53.6 °F 41.0 °F 62% 30.26 in 10.0 mi NNE 8.1 mph - N/A   Overcast
11:35 PM 51.8 °F 41.0 °F 67% 30.26 in 10.0 mi NNE 9.2 mph - N/A   Overcast
11:56 PM 51.8 °F 41.0 °F 67% 30.27 in 10.0 mi NNE 10.4 mph - N/A   Scattered Clouds